Medford, WI

2:10 PM CST on January 20, 2017 (GMT -0600)
Taylor County

Weather History for KMDZ - November, 2013

Change the Weather History Date:

Monday, November 4, 2013

  Actual Average Record
Temperature  
Mean Temperature 41 °F -  
Max Temperature 44 °F 43 °F 71 °F (1978)
Min Temperature 38 °F 27 °F 2 °F (1951)
Degree Days  
Heating Degree Days 24    
Moisture  
Dew Point 37 °F    
Average Humidity 85    
Maximum Humidity 97    
Minimum Humidity 71    
Precipitation  
Precipitation 0.06 in - - ()
Sea Level Pressure  
Sea Level Pressure 30.01 in    
Wind  
Wind Speed 13 mph (South)    
Max Wind Speed 17 mph    
Max Gust Speed 29 mph    
Visibility 9 miles    
Events Rain    
Averages and records for this station are not official NWS values.
T = Trace of Precipitation, MM = Missing Value Source: NWS Daily Summary

Daily Weather History Graph

Daily Weather History Graph

Search for Another Location

Airport or City:

Trip Planner

Search our weather history database for the weather conditions in past years. The results will help you decide how hot, cold, wet, or windy it might be!

Date:

Astronomy

Nov. 04, 2013 Rise Set
Actual Time 6:44 AM CST 4:44 PM CST
Civil Twilight 6:13 AM CST 5:15 PM CST
Nautical Twilight 5:38 AM CST 5:50 PM CST
Astronomical Twilight 5:04 AM CST 6:24 PM CST
Moon 7:57 AM CST (11/4) 5:46 PM CST (11/4)
Length of Visible Light 11h 02m
Length of Day
10h 00m
New Moon, 2% of the Moon is Illuminated
Nov 4
New Moon
Nov 9
First Quarter
Nov 17
Full
Nov 25
Last Quarter
Dec 2
New

Hourly Weather History & Observations

Time (CST) Temp. Windchill Dew Point Humidity Pressure Visibility Wind Dir Wind Speed Gust Speed Precip Events Conditions
12:15 AM 38.8 °F 30.8 °F 33.3 °F 80% 30.08 in 10.0 mi SE 13.8 mph 23.0 mph N/A   Clear
12:35 AM 39.2 °F 30.5 °F 33.4 °F 80% 30.08 in 10.0 mi SSE 16.1 mph 20.7 mph N/A   Clear
12:55 AM 38.7 °F 30.5 °F 33.3 °F 81% 30.08 in 10.0 mi SE 13.8 mph 20.7 mph N/A   Clear
1:15 AM 38.8 °F 29.7 °F 33.3 °F 80% 30.08 in 10.0 mi SE 17.3 mph 23.0 mph N/A   Clear
1:35 AM 38.8 °F 30.8 °F 33.4 °F 81% 30.08 in 10.0 mi SE 13.8 mph 19.6 mph N/A   Clear
1:55 AM 39.2 °F 30.8 °F 33.4 °F 80% 30.07 in 10.0 mi SE 15.0 mph 21.9 mph N/A   Clear
2:15 AM 39.2 °F 30.5 °F 33.8 °F 81% 30.05 in 10.0 mi SE 16.1 mph 25.3 mph N/A   Clear
2:35 AM 39.2 °F 31.2 °F 33.4 °F 80% 30.06 in 10.0 mi SE 13.8 mph 23.0 mph N/A   Clear
2:55 AM 39.2 °F 30.5 °F 33.4 °F 80% 30.06 in 10.0 mi SSE 16.1 mph 21.9 mph N/A   Clear
3:15 AM 39.4 °F 31.4 °F 33.6 °F 80% 30.05 in 10.0 mi SSE 13.8 mph 26.5 mph N/A   Clear
3:35 AM 39.7 °F 31.5 °F 33.8 °F 79% 30.04 in 10.0 mi SE 15.0 mph 20.7 mph N/A   Mostly Cloudy
3:55 AM 40.1 °F 31.6 °F 33.8 °F 78% 30.04 in 10.0 mi SE 16.1 mph 25.3 mph N/A   Overcast
4:15 AM 40.1 °F 32.0 °F 33.8 °F 78% 30.04 in 10.0 mi SSE 15.0 mph 23.0 mph N/A   Mostly Cloudy
4:35 AM 40.3 °F 31.9 °F 33.8 °F 78% 30.05 in 10.0 mi SE 16.1 mph 23.0 mph N/A   Overcast
4:55 AM 40.3 °F 33.4 °F 33.8 °F 78% 30.05 in 10.0 mi SSE 11.5 mph 23.0 mph N/A   Mostly Cloudy
5:15 AM 39.7 °F 31.9 °F 33.4 °F 78% 30.03 in 10.0 mi SSE 13.8 mph 21.9 mph N/A   Clear
5:35 AM 40.1 °F 31.6 °F 33.4 °F 77% 30.02 in 10.0 mi SSE 16.1 mph 21.9 mph N/A   Clear
5:55 AM 40.1 °F 31.3 °F 33.4 °F 77% 30.01 in 10.0 mi SSE 17.3 mph 23.0 mph N/A   Clear
6:15 AM 40.1 °F 31.6 °F 33.4 °F 77% 30.00 in 10.0 mi SE 16.1 mph 24.2 mph N/A   Mostly Cloudy
6:35 AM 40.1 °F 32.0 °F 33.4 °F 77% 30.00 in 10.0 mi SE 15.0 mph 24.2 mph N/A   Overcast
6:55 AM 40.1 °F 32.4 °F 33.4 °F 77% 30.00 in 10.0 mi SSE 13.8 mph 28.8 mph N/A   Overcast
7:15 AM 40.3 °F 32.2 °F 33.3 °F 76% 30.00 in 10.0 mi SSE 15.0 mph 27.6 mph N/A   Overcast
7:35 AM 40.5 °F 32.5 °F 33.4 °F 76% 30.01 in 10.0 mi SSE 15.0 mph 27.6 mph N/A   Overcast
8:15 AM 41.0 °F 33.5 °F 33.8 °F 76% 30.01 in 10.0 mi SSE 13.8 mph 20.7 mph N/A   Overcast
8:35 AM 41.0 °F 33.5 °F 33.8 °F 76% 30.01 in 10.0 mi SSE 13.8 mph 24.2 mph N/A   Overcast
8:55 AM 41.2 °F 34.1 °F 34.0 °F 76% 30.00 in 10.0 mi SSE 12.7 mph 25.3 mph N/A   Light Drizzle
9:15 AM 41.2 °F 33.4 °F 34.0 °F 76% 30.01 in 10.0 mi SSE 15.0 mph 20.7 mph N/A Rain Light Rain
9:35 AM 40.3 °F 33.4 °F 35.6 °F 83% 30.00 in 10.0 mi SSE 11.5 mph 18.4 mph N/A Rain Light Rain
9:55 AM 40.6 °F 34.3 °F 35.6 °F 82% 30.01 in 10.0 mi SSE 10.4 mph - N/A Rain Light Rain
10:15 AM 41.0 °F 33.9 °F 35.6 °F 81% 30.00 in 10.0 mi SSE 12.7 mph 17.3 mph N/A   Light Drizzle
10:35 AM 41.9 °F 35.0 °F 35.6 °F 78% 30.00 in 10.0 mi SSE 12.7 mph 19.6 mph N/A   Overcast
10:55 AM 42.3 °F 35.9 °F 35.1 °F 76% 29.98 in 10.0 mi SSE 11.5 mph 20.7 mph N/A   Overcast
11:15 AM 43.2 °F 36.6 °F 35.6 °F 75% 29.97 in 10.0 mi SSE 12.7 mph 17.3 mph N/A   Overcast
11:35 AM 43.7 °F 36.6 °F 35.8 °F 74% 29.96 in 10.0 mi SSE 15.0 mph 21.9 mph N/A   Overcast
11:55 AM 44.1 °F 37.1 °F 35.8 °F 73% 29.95 in 10.0 mi SSE 15.0 mph 21.9 mph N/A   Overcast
12:15 PM 44.6 °F 37.4 °F 35.8 °F 71% 29.94 in 10.0 mi SSE 16.1 mph 20.7 mph N/A   Overcast
12:35 PM 44.6 °F 38.1 °F 36.1 °F 72% 29.94 in 10.0 mi SSE 13.8 mph 19.6 mph N/A   Overcast
12:55 PM 43.9 °F 36.5 °F 37.0 °F 77% 29.94 in 10.0 mi South 16.1 mph 25.3 mph N/A Rain Light Rain
1:15 PM 42.8 °F 36.6 °F 38.1 °F 84% 29.93 in 10.0 mi SSE 11.5 mph - N/A Rain Light Rain
1:35 PM 42.8 °F 36.2 °F 38.3 °F 84% 29.94 in 10.0 mi South 12.7 mph - 0.01 in Rain Rain
1:55 PM 42.3 °F 36.3 °F 38.7 °F 87% 29.94 in 10.0 mi South 10.4 mph - 0.02 in Rain Rain
2:15 PM 42.3 °F 35.9 °F 39.0 °F 88% 29.94 in 7.0 mi South 11.5 mph - 0.01 in Rain Rain
2:35 PM 42.3 °F 36.3 °F 39.4 °F 90% 29.95 in 7.0 mi South 10.4 mph - 0.02 in Rain Light Rain
2:55 PM 42.3 °F 35.9 °F 39.7 °F 91% 29.94 in 7.0 mi South 11.5 mph - 0.03 in Rain Rain
3:15 PM 42.1 °F 35.2 °F 39.9 °F 92% 29.94 in 10.0 mi South 12.7 mph - N/A   Light Drizzle
3:35 PM 42.1 °F 35.7 °F 39.9 °F 92% 29.95 in 7.0 mi South 11.5 mph - N/A   Drizzle
3:55 PM 41.9 °F 34.6 °F 40.1 °F 93% 29.95 in 5.0 mi South 13.8 mph - N/A   Light Drizzle
4:15 PM 41.9 °F 35.4 °F 40.5 °F 95% 29.95 in 5.0 mi South 11.5 mph - N/A   Light Drizzle
4:35 PM 42.3 °F 35.1 °F 40.6 °F 94% 29.96 in 4.0 mi South 13.8 mph 21.9 mph N/A   Light Drizzle
4:55 PM 42.4 °F 35.7 °F 41.0 °F 95% 29.96 in 7.0 mi South 12.7 mph 18.4 mph N/A   Light Drizzle
5:15 PM 42.4 °F 35.7 °F 41.0 °F 95% 29.96 in 3.0 mi South 12.7 mph 21.9 mph N/A Rain Rain
5:35 PM 42.6 °F 34.9 °F 41.5 °F 96% 29.97 in 2.5 mi SSW 16.1 mph 19.6 mph N/A Rain Rain
5:55 PM 42.8 °F 35.8 °F 41.9 °F 97% 29.98 in 2.0 mi SSW 13.8 mph - N/A   Drizzle
6:15 PM 42.8 °F 35.1 °F 41.9 °F 97% 29.98 in 2.5 mi South 16.1 mph 20.7 mph 0.01 in Rain Light Rain
6:35 PM 42.8 °F 35.8 °F 41.9 °F 97% 29.99 in 4.0 mi SSW 13.8 mph 20.7 mph 0.01 in   Overcast
6:55 PM 43.0 °F 36.8 °F 41.9 °F 96% 30.00 in 7.0 mi SSW 11.5 mph - 0.01 in   Overcast
7:15 PM 43.2 °F 37.9 °F 42.1 °F 96% 30.01 in 7.0 mi SW 9.2 mph - N/A   Overcast
7:35 PM 43.7 °F 38.6 °F 41.9 °F 93% 30.01 in 10.0 mi SW 9.2 mph - N/A   Overcast
7:55 PM 43.3 °F 38.1 °F 41.7 °F 94% 30.02 in 10.0 mi SW 9.2 mph - N/A   Overcast
8:15 PM 43.2 °F 39.0 °F 41.0 °F 92% 30.03 in 10.0 mi WSW 6.9 mph - N/A   Overcast
8:55 PM 42.6 °F 37.8 °F 40.1 °F 91% 30.05 in 10.0 mi West 8.1 mph - N/A   Overcast
9:15 PM 42.1 °F 38.4 °F 39.2 °F 90% 30.06 in 10.0 mi West 5.8 mph - N/A   Overcast
9:35 PM 41.0 °F 37.1 °F 38.5 °F 91% 30.08 in 10.0 mi West 5.8 mph - N/A   Mostly Cloudy
9:55 PM 41.0 °F 37.1 °F 38.8 °F 92% 30.08 in 10.0 mi WSW 5.8 mph - N/A   Overcast
10:15 PM 41.0 °F 37.1 °F 39.2 °F 93% 30.09 in 7.0 mi WSW 5.8 mph - N/A   Overcast
10:35 PM 40.3 °F 34.4 °F 38.5 °F 93% 30.10 in 7.0 mi WSW 9.2 mph - N/A   Overcast
10:55 PM 39.7 °F 35.6 °F 38.3 °F 95% 30.10 in 7.0 mi WSW 5.8 mph - N/A   Overcast
11:15 PM 39.0 °F 34.0 °F 37.6 °F 95% 30.12 in 7.0 mi WSW 6.9 mph - N/A   Mostly Cloudy
11:35 PM 38.5 °F 36.1 °F 37.4 °F 96% 30.12 in 5.0 mi WSW 3.5 mph - N/A   Mostly Cloudy
11:55 PM 38.1 °F 34.6 °F 37.0 °F 96% 30.13 in 5.0 mi West 4.6 mph - N/A   Mostly Cloudy